Location: Indian Springs
(36.5700°N, 115.6700°W)
Time: 01:06:33
(UTC-07:00)

Amateur Radio Satellites - All Passes

Search period start: 17 April 2014 00:36
Search period end: 18 April 2014 00:36
Location: Indian Springs, 36.5700°N, 115.6700°W

Satellite Date Start Highest point End Downlink Frequencies (MHz)
Time Altitude Azimuth
Oscar 10/S400 17 Apr 00:48:17 00:59:31 16° 134° (SE) 01:14:26 145.825 - 145.975 CW/USB, Beacon 145.810 USB
Oscar 19 17 Apr 01:04:16 01:06:21 12° 91° (E) 01:08:26 437.125 CW, 437.150 USB
Oscar 16 17 Apr 01:11:05 01:14:16 16° 93° (E) 01:17:26 437.025 USB, Beacon 2401.1428
PCSat 17 Apr 01:16:55 01:22:19 79° 297° (WNW) 01:27:45 145.825 MHz
OPAL 17 Apr 01:28:12 01:31:46 20° 63° (ENE) 01:35:22 ?
Uribyol 2 17 Apr 01:41:17 01:44:25 16° 93° (E) 01:47:33 436.500 FM
SO-50 17 Apr 01:59:58 02:04:20 40° 245° (WSW) 02:08:44 436.795 FM
Sapphire 17 Apr 02:16:08 02:20:44 28° 306° (NW) 02:25:21 437.095 MHz 1200 baud AX-25 AFSK
AO-27 17 Apr 02:18:44 02:23:31 37° 98° (E) 02:28:17 436.795 MHz FM
KITSAT 1 17 Apr 02:20:57 02:28:03 35° 107° (ESE) 02:35:10 435.175 FM
ITAMSAT 1 17 Apr 02:30:01 02:35:01 48° 100° (E) 02:39:59 435.822 SSB
Oscar 19 17 Apr 02:40:57 02:46:08 68° 286° (WNW) 02:51:16 437.125 CW, 437.150 USB
TMSAT-1 17 Apr 02:47:18 02:50:02 14° 92° (E) 02:52:46 436.925 FM
Oscar 16 17 Apr 02:48:51 02:53:53 53° 287° (WNW) 02:58:55 437.025 USB, Beacon 2401.1428
UOSAT-12 17 Apr 02:58:07 03:02:38 43° 55° (NE) 03:07:06 437.025 FM, 437.400 FM
AO-Echo 17 Apr 03:04:32 03:09:21 87° 103° (ESE) 03:14:03 ?
PCSat 17 Apr 03:04:37 03:06:37 12° 316° (NW) 03:08:37 145.825 MHz
OPAL 17 Apr 03:05:33 03:10:18 44° 259° (W) 03:15:08 ?
Uribyol 2 17 Apr 03:19:09 03:24:10 53° 287° (WNW) 03:29:11 436.500 FM
Gurwin Techsat 1B 17 Apr 03:35:07 03:40:24 63° 101° (ESE) 03:45:38 435.225 FM
AO-27 17 Apr 03:58:45 04:02:48 24° 293° (WNW) 04:06:50 436.795 MHz FM
ITAMSAT 1 17 Apr 04:10:34 04:14:07 19° 295° (WNW) 04:17:39 435.822 SSB
KITSAT 1 17 Apr 04:15:22 04:23:09 49° 305° (NW) 04:31:00 435.175 FM
TMSAT-1 17 Apr 04:25:07 04:30:20 61° 286° (WNW) 04:35:32 436.925 FM
UOSAT-12 17 Apr 04:39:10 04:42:27 19° 251° (WSW) 04:45:41 437.025 FM, 437.400 FM
JAS-1B 17 Apr 04:41:11 04:46:52 76° 103° (ESE) 04:52:46 435.800 - 435.900 CW/SSB
AO-7 17 Apr 04:55:26 05:03:33 55° 103° (ESE) 05:11:38 29.400 - 29.500 MHz
Uosat F 17 Apr 04:59:03 05:04:04 78° 285° (WNW) 05:09:03 435.120 FM
Gurwin Techsat 1B 17 Apr 05:16:50 05:19:48 15° 297° (WNW) 05:22:45 435.225 FM
STRAND 1 17 Apr 05:40:10 05:44:10 24° 67° (ENE) 05:48:10 ?
Hamsat 17 Apr 06:13:20 06:16:54 24° 95° (E) 06:20:28 145.90 MHz
KITSAT 1 17 Apr 06:17:39 06:20:48 12° 329° (NNW) 06:23:58 435.175 FM
RS-15 17 Apr 06:25:38 06:36:17 47° 109° (ESE) 06:46:33 29.354 - 29.394 USB, Beacon 29.352 USB
JAS-1B 17 Apr 06:34:46 06:36:51 12° 300° (WNW) 06:38:57 435.800 - 435.900 CW/SSB
AO-7 17 Apr 06:48:52 06:55:54 32° 300° (WNW) 07:02:57 29.400 - 29.500 MHz
STRAND 1 17 Apr 07:18:25 07:23:07 37° 262° (W) 07:27:50 ?
JAS-2 17 Apr 07:21:29 07:26:33 41° 99° (E) 07:32:05 435.800 - 435.900 CW/SSB, 435.910 FM
SO-67 17 Apr 07:43:51 07:47:15 48° 99° (E) 07:50:38 435.3500 MHz FM
Hamsat 17 Apr 07:49:13 07:52:47 25° 290° (WNW) 07:56:21 145.90 MHz
MaSat-1 17 Apr 08:15:49 08:18:41 36° 248° (WSW) 08:22:02 437.345 MHz
HO-68 17 Apr 08:18:59 08:21:14 12° 90° (E) 08:23:29 435.675 MHz FM
RS-15 17 Apr 08:37:46 08:48:33 48° 310° (NW) 08:59:05 29.354 - 29.394 USB, Beacon 29.352 USB
JAS-2 17 Apr 09:07:20 09:11:28 23° 292° (WNW) 09:15:52 435.800 - 435.900 CW/SSB, 435.910 FM
Oscar 11 17 Apr 09:18:55 09:20:00 11° 91° (E) 09:21:05 145.825 FM, Beacon 2401.500 USB
Sapphire 17 Apr 09:23:10 09:27:07 20° 50° (NE) 09:31:03 437.095 MHz 1200 baud AX-25 AFSK
PANSAT 17 Apr 09:37:55 09:40:26 17° 166° (SSE) 09:42:57 not established
HO-68 17 Apr 10:02:36 10:09:49 82° 105° (ESE) 10:17:00 435.675 MHz FM
PCSat 17 Apr 10:07:27 10:12:42 48° 59° (ENE) 10:17:55 145.825 MHz
KITSAT 1 17 Apr 10:17:39 10:21:30 14° 33° (NNE) 10:25:20 435.175 FM
FUNcube-1 17 Apr 10:35:41 10:39:15 26° 96° (E) 10:42:53 145.950 - 145.970 MHz USB
Saudisat 1A 17 Apr 10:43:30 10:47:08 25° 112° (ESE) 10:50:47 436.775 MHz
Oscar 11 17 Apr 10:52:14 10:56:30 56° 285° (WNW) 11:00:45 145.825 FM, Beacon 2401.500 USB
RS-15 17 Apr 10:58:14 11:04:37 16° 340° (NNW) 11:10:58 29.354 - 29.394 USB, Beacon 29.352 USB
Sapphire 17 Apr 11:05:36 11:10:53 56° 248° (WSW) 11:16:09 437.095 MHz 1200 baud AX-25 AFSK
PANSAT 17 Apr 11:16:57 11:20:07 24° 179° (S) 11:23:17 not established
PCSat 17 Apr 11:51:51 11:55:42 20° 255° (WSW) 11:59:33 145.825 MHz
HO-68 17 Apr 11:52:10 11:56:38 18° 302° (WNW) 12:01:07 435.675 MHz FM
KITSAT 1 17 Apr 12:10:58 12:18:55 55° 57° (ENE) 12:26:46 435.175 FM
FUNcube-1 17 Apr 12:12:13 12:15:33 23° 290° (WNW) 12:18:56 145.950 - 145.970 MHz USB
Oscar 19 17 Apr 12:18:49 12:21:42 15° 63° (ENE) 12:24:34 437.125 CW, 437.150 USB
Saudisat 1A 17 Apr 12:22:39 12:26:36 30° 307° (NW) 12:30:35 436.775 MHz
Oscar 16 17 Apr 12:25:53 12:29:27 19° 65° (ENE) 12:33:02 437.025 USB, Beacon 2401.1428
Uribyol 2 17 Apr 12:56:54 13:00:36 20° 66° (ENE) 13:04:17 436.500 FM
PANSAT 17 Apr 12:57:04 12:59:50 19° 191° (SSW) 13:02:36 not established
RS-15 17 Apr 13:17:30 13:23:37 16° 19° (NNE) 13:29:45 29.354 - 29.394 USB, Beacon 29.352 USB
AO-27 17 Apr 13:34:29 13:39:24 45° 71° (ENE) 13:44:20 436.795 MHz FM
ITAMSAT 1 17 Apr 13:45:36 13:50:40 57° 73° (ENE) 13:55:45 435.822 SSB
Oscar 10/S400 17 Apr 13:48:32 15:10:17 23° 270° (W) 17:46:34 145.825 - 145.975 CW/USB, Beacon 145.810 USB
Oscar 19 17 Apr 13:55:26 14:00:29 60° 259° (W) 14:05:36 437.125 CW, 437.150 USB
Oscar 16 17 Apr 14:03:32 14:08:25 46° 261° (W) 14:13:22 437.025 USB, Beacon 2401.1428
TMSAT-1 17 Apr 14:05:36 14:09:12 19° 65° (ENE) 14:12:47 436.925 FM
AO-7 17 Apr 14:06:21 14:08:33 11° 48° (NE) 14:10:45 29.400 - 29.500 MHz
KITSAT 1 17 Apr 14:07:06 14:13:50 30° 254° (WSW) 14:20:33 435.175 FM
AO-Echo 17 Apr 14:14:24 14:19:41 86° 76° (ENE) 14:24:53 ?
Uosat F 17 Apr 14:34:47 14:36:42 12° 62° (ENE) 14:38:38 435.120 FM
Uribyol 2 17 Apr 14:34:49 14:39:43 44° 261° (W) 14:44:39 436.500 FM
SO-50 17 Apr 14:36:15 14:36:57 10° 107° (ESE) 14:37:39 436.795 FM
Gurwin Techsat 1B 17 Apr 14:53:45 14:59:02 77° 75° (ENE) 15:04:21 435.225 FM
AO-27 17 Apr 15:15:27 15:19:05 19° 266° (W) 15:22:44 436.795 MHz FM
OPAL 17 Apr 15:17:29 15:22:39 60° 103° (ESE) 15:27:47 ?
JAS-1B 17 Apr 15:21:53 15:30:06 57° 72° (ENE) 15:36:59 435.800 - 435.900 CW/SSB
ITAMSAT 1 17 Apr 15:27:36 15:30:29 15° 268° (W) 15:33:22 435.822 SSB
RS-15 17 Apr 15:29:27 15:39:52 46° 49° (NE) 15:50:27 29.354 - 29.394 USB, Beacon 29.352 USB
TMSAT-1 17 Apr 15:43:35 15:48:41 50° 260° (W) 15:53:50 436.925 FM
AO-7 17 Apr 15:51:33 15:59:36 59° 67° (ENE) 16:07:40 29.400 - 29.500 MHz
ISS 17 Apr 15:54:33 15:57:53 82° 319° (NW) 16:01:15 145.800 FM
Uosat F 17 Apr 16:09:49 16:14:50 73° 257° (WSW) 16:19:53 435.120 FM
SO-50 17 Apr 16:12:27 16:16:53 68° 302° (WNW) 16:21:23 436.795 FM
Gurwin Techsat 1B 17 Apr 16:38:17 16:39:32 11° 270° (W) 16:40:47 435.225 FM
OPAL 17 Apr 16:57:51 17:01:00 16° 298° (WNW) 17:04:09 ?
Hamsat 17 Apr 17:06:09 17:08:10 13° 66° (ENE) 17:10:12 145.90 MHz
UOSAT-12 17 Apr 17:07:59 17:11:28 22° 110° (ESE) 17:15:00 437.025 FM, 437.400 FM
JAS-1B 17 Apr 17:13:57 17:20:45 26° 263° (W) 17:26:45 435.800 - 435.900 CW/SSB
ISS 17 Apr 17:33:19 17:35:05 14° 336° (NNW) 17:36:52 145.800 FM
JAS-2 17 Apr 17:34:50 17:37:17 13° 63° (ENE) 17:39:38 435.800 - 435.900 CW/SSB, 435.910 FM
RS-15 17 Apr 17:41:53 17:52:14 50° 250° (WSW) 18:02:55 29.354 - 29.394 USB, Beacon 29.352 USB
AO-7 17 Apr 17:45:59 17:52:43 28° 264° (W) 17:59:31 29.400 - 29.500 MHz
SO-67 17 Apr 18:17:13 18:18:39 12° 68° (ENE) 18:20:06 435.3500 MHz FM
Hamsat 17 Apr 18:39:43 18:43:44 45° 261° (W) 18:47:48 145.90 MHz
UOSAT-12 17 Apr 18:47:11 18:51:22 35° 307° (NW) 18:55:39 437.025 FM, 437.400 FM
Saudisat 1A 17 Apr 19:13:36 19:15:29 12° 44° (NE) 19:17:22 436.775 MHz
JAS-2 17 Apr 19:15:44 19:21:52 77° 257° (WSW) 19:27:21 435.800 - 435.900 CW/SSB, 435.910 FM
STRAND 1 17 Apr 19:31:02 19:36:09 89° 284° (WNW) 19:41:14 ?
SO-67 17 Apr 19:48:20 19:51:29 32° 263° (W) 19:54:39 435.3500 MHz FM
HO-68 17 Apr 20:28:21 20:35:06 48° 68° (ENE) 20:41:53 435.675 MHz FM
Saudisat 1A 17 Apr 20:51:13 20:55:38 76° 242° (WSW) 20:59:58 436.775 MHz
FUNcube-1 17 Apr 21:31:12 21:33:48 16° 68° (ENE) 21:36:24 145.950 - 145.970 MHz USB
Oscar 11 17 Apr 21:44:37 21:48:54 83° 77° (ENE) 21:53:14 145.825 FM, Beacon 2401.500 USB
HO-68 17 Apr 22:16:58 22:22:57 29° 264° (W) 22:28:59 435.675 MHz FM
MaSat-1 17 Apr 22:17:32 22:20:18 30° 295° (WNW) 22:22:46 437.345 MHz
ISS 17 Apr 22:25:36 22:28:49 41° 36° (NE) 22:32:00 145.800 FM
FUNcube-1 17 Apr 23:06:01 23:09:56 36° 262° (W) 23:13:49 145.950 - 145.970 MHz USB
Sapphire 18 Apr 00:02:31 00:06:59 27° 107° (ESE) 00:11:28 437.095 MHz 1200 baud AX-25 AFSK
ISS 18 Apr 00:03:02 00:05:19 17° 231° (SW) 00:07:36 145.800 FM
